Regional Weather Roundup
Issued by NWS Northern Indiana

Home | Current Version | Previous Version | Graphics & Text | Print | Product List | Glossary On
Versions: 1 2 3 4 5 6 7 8 9 10 11 12 13 14 15 16 17 18 19 20 21 22 23 24 25 26 27 28 29 30 31 32 33 34 35 36 37 38 39 40 41 42 43 44 45 46 47 48 49 50
000
ASUS43 KIWX 290710
RWRIWX

KIWX WEATHER ROUNDUP
NATIONAL WEATHER SERVICE NORTHERN INDIANA
300 AM EDT TUE JUL 29 2014

NOTE: "FAIR" INDICATES FEW OR NO CLOUDS BELOW 12,000 FEET WITH NO
SIGNIFICANT WEATHER AND/OR OBSTRUCTIONS TO VISIBILITY.

* THESE STATIONS ARE NOT UNDER NWS QUALITY CONTROL. THEY ALSO MAY NOT
  REPORT WEATHER SUCH AS PRECIPITATION OR FOG.

INZ001>027-290800-
NORTHERN INDIANA

CITY           SKY/WX    TMP DP  RH WIND       PRES   REMARKS
GARY*          CLEAR     56  54  92 CALM      30.05F
VALPARAISO     PTCLDY    54  52  93 CALM      30.05F
MICHIGAN CITY* CLEAR     54  52  94 CALM      30.05S
LAPORTE*       CLEAR     53  49  88 NW3       30.05F
KNOX*          MOCLDY    55  51  89 SW3       30.04S
SOUTH BEND     CLEAR     54  48  80 CALM      30.04F
GOSHEN         CLEAR     50  47  89 CALM      30.04S
MONTICELLO*    MOCLDY    51  51  97 CALM      30.05S
LOGANSPORT*    CLOUDY    54  48  82 CALM      30.06S
ROCHESTER*     MOCLDY    55  50  82 CALM      30.05F
WARSAW*        CLEAR     46  46 100 CALM      30.04S
ANGOLA*        CLEAR     48  48 100 CALM      30.03S
FORT WAYNE     PTCLDY    52  49  89 NW3       30.04S
HUNTINGTON*    PTCLDY    49  48  95 CALM      30.03S
PERU/GRISSOM   CLOUDY    55  52  89 W5        30.04S
MARION*        PTCLDY    48  47  96 CALM      30.05F

$$
INZ028>050-290800-
CENTRAL INDIANA

CITY           SKY/WX    TMP DP  RH WIND       PRES   REMARKS
LAFAYETTE      CLEAR     50  49  96 CALM      30.06S
KOKOMO*        CLOUDY    52  48  87 NW3       30.05F
MUNCIE*        PTCLDY    51  48  89 NW6       30.04S
INDIANAPOLIS   MOCLDY    54  48  80 NW6       30.04F

$$
MIZ043>046-050>051-056>058-064>065-071>073-077>080-290800-
SOUTHWEST LOWER MICHIGAN

CITY           SKY/WX    TMP DP  RH WIND       PRES   REMARKS
BATTLE CREEK   CLEAR     53  49  86 SW3       30.02F
BENTON HARBOR  CLEAR     47  46  97 CALM      30.03F
COLDWATER*     CLEAR     51  49  95 CALM      30.02F
HILLSDALE*     CLEAR     48  48 100 CALM      30.01F
HOLLAND        CLEAR     51  47  86 W3        30.02F
GRAND RAPIDS   CLEAR     54  51  90 W6        30.02S
KALAMAZOO      CLEAR     50  47  89 CALM      30.02F
STURGIS*       CLEAR     48  46  93 CALM      30.03S
THREE RIVERS*  FAIR      50  49  98 CALM      30.03F

$$
OHZ001>008-015>018-024>025-290800-
NORTHWEST OHIO

CITY           SKY/WX    TMP DP  RH WIND       PRES   REMARKS
WAUSEON*       FAIR      48  46  93 W3        30.01F
DEFIANCE       CLEAR     52  48  86 CALM      30.02S
FINDLAY        MOCLDY    58  50  75 N6        29.99F
TOLEDO EXPRESS CLEAR     52  48  86 NW6       30.00F
TOLEDO METCALF CLEAR     53  47  79 NW3       30.01S
LIMA           CLOUDY    57  52  83 N7        30.01S

$$
&&



USA.gov is the U.S. government's official web portal to all federal, state and local government web resources and services.